Weather observations for the past three days for
Muskogee-Davis Regional Airport
Imperial (Metric)
Date Time (cdt) Wind (mph) Vis. (mi.) Weather Sky Cond. Temperature (ºF) Relative Humidity Wind Chill (°F) Heat Index (°F) Pressure Precipitation (in)
Air Dwpt 6 hour altimeter (in) sea level (mb) 1 hr 3 hr 6 hr
Max. Min.
22 06:53 N 6 5.00 Fog/Mist FEW014 OVC030 71.1 69.1 72 70 94% 30.05 1017.0
22 05:53 Calm 5.00 Fog/Mist BKN037 71.1 69.1 94% 30.04 1016.7
22 04:53 N 3 3.00 Fog/Mist OVC003 71.1 69.1 94% 30.03 1016.1
22 03:53 N 5 5.00 Fog/Mist BKN003 71.1 70 96% 30.03 1016.2
22 02:53 N 3 8.00 Fair CLR 70 68 93% 30.04 1016.4
22 01:53 Calm 7.00 Fair CLR 71.1 69.1 94% 30.05 1016.8
22 00:53 N 3 7.00 Mostly Cloudy SCT055 SCT080 BKN090 72 70 77 72 94% 30.07 1017.6
21 23:53 Calm 10.00 A Few Clouds FEW036 73 70 90% 30.07 1017.6
21 22:53 E 3 10.00 Partly Cloudy SCT037 73 70 90% 30.07 1017.7
21 21:53 NE 3 10.00 Mostly Cloudy SCT032 BKN120 73 70 90% 30.06 1017.2
21 20:53 Calm 10.00 Overcast FEW027 BKN034 OVC070 73.9 70 88% 30.05 1016.9
21 19:53 NE 6 10.00 Mostly Cloudy SCT042 BKN120 75.9 71.1 85% 76 30.04 1016.5
21 18:53 NE 9 10.00 Overcast OVC110 75.9 72 82 73.9 88% 76 30.03 1016.1 0.01 0.03
21 17:53 N 9 2.50 Rain Fog/Mist FEW037 SCT060 OVC090 75 71.1 88% 75 30.03 1016.1 0.02
21 16:53 E 6 10.00 Mostly Cloudy SCT029 BKN047 BKN090 80.1 69.1 69% 83 30.02 1015.8
21 15:53 S 5 10.00 Overcast FEW025 FEW036 OVC046 80.1 68 67% 83 30.03 1016.2
21 14:53 Vrbl 5 10.00 Overcast BKN024 BKN029 OVC044 79 69.1 72% 82 30.05 1016.9
21 13:53 SE 7 10.00 Overcast BKN021 OVC041 79 69.1 72% 82 30.06 1017.2
21 12:53 S 5 10.00 Overcast BKN017 BKN024 OVC029 77 70 77 69.1 79% 79 30.08 1017.9 0.04
21 11:53 SE 7 10.00 Overcast FEW010 BKN015 OVC024 73.9 70 88% 30.09 1018.4 0.01
21 10:53 SE 5 8.00 Light Rain BKN009 OVC036 72 69.1 91% 30.11 1018.8
21 09:53 E 8 10.00 Overcast BKN009 OVC014 73.9 70 88% 30.1 1018.6 0.03
21 08:53 SE 8 10.00 Overcast SCT004 OVC017 71.1 69.1 94% 30.1 1018.5
21 07:53 SE 3 10.00 Overcast OVC015 70 68 93% 30.09 1018.2 0.03
21 06:53 S 3 6.00 Rain Fog/Mist BKN110 69.1 68 75 68 96% 30.07 1017.5 0.15 0.85
21 05:53 N 10 2.50 Thunderstorm Rain Fog/Mist FEW007 BKN040 OVC085 69.1 66.9 93% 30.07 1017.5 0.67
21 04:53 SW 5 3.00 Thunderstorm in Vicinity Rain Fog/Mist OVC048 72 68 87% 30.06 1017.0 0.03
21 03:53 SE 3 10.00 Partly Cloudy SCT085 73 68 84% 30.03 1015.9
21 02:53 SE 7 10.00 Fair CLR 73.9 68 82% 30.02 1015.9
21 01:53 S 5 10.00 Fair CLR 75 66.9 76% 76 30.04 1016.3
21 00:53 SE 6 10.00 Overcast OVC080 75.9 66.9 82.9 75 74% 77 30.05 1016.6
20 23:53 SE 5 10.00 A Few Clouds FEW080 75 66.9 76% 76 30.05 1016.7
20 22:53 SE 5 10.00 Mostly Cloudy BKN075 77 68 74% 79 30.05 1016.9
20 21:53 SE 3 10.00 Mostly Cloudy SCT075 BKN110 78.1 68 71% 80 30.05 1016.8
20 20:53 SE 5 10.00 A Few Clouds FEW080 79 66.9 67% 81 30.02 1015.9
20 19:53 SE 5 10.00 Fair CLR 81 66 61% 83 30.03 1016.1
20 18:53 SE 6 10.00 Fair CLR 84 64.9 87.1 82 53% 86 30.02 1016.0
20 17:53 Vrbl 5 10.00 Fair CLR 84 66 55% 86 30.03 1016.2
20 16:53 S 7 10.00 Fair CLR 84 66 55% 86 30.03 1016.4
20 15:53 S 5 10.00 Fair CLR 86 66.9 53% 89 30.05 1016.7
20 14:53 SW 6 10.00 A Few Clouds FEW110 82.9 64.9 55% 85 30.06 1017.1
20 13:53 S 7 10.00 Fair CLR 84 64.9 53% 86 30.05 1017.0
20 12:53 Vrbl 7 10.00 Fair CLR 84.9 64.9 87.1 64.9 51% 87 30.08 1017.9
20 11:53 W 13 G 20 10.00 Fair CLR 84.9 63 48% 86 30.11 1018.8
20 10:53 S 8 10.00 Partly Cloudy SCT060 SCT075 81 64 57% 83 30.12 1019.1
20 09:53 S 7 10.00 Fair CLR 75 63 66% 77 30.12 1019.2
20 08:53 SE 10 10.00 Fair CLR 73.9 63 69% 30.11 1019.1
20 07:53 SE 5 10.00 Fair CLR 69.1 63 81% 30.11 1018.8
20 06:53 S 6 9.00 Fair CLR 64.9 62.1 70 64 90% 30.08 1017.9
20 05:53 S 3 10.00 Fair CLR 64.9 62.1 90% 30.09 1018.1
20 04:53 S 6 10.00 Fair CLR 64.9 61 87% 30.07 1017.6
20 03:53 S 7 10.00 Fair CLR 66.9 61 81% 30.06 1017.2
20 02:53 SE 6 10.00 Fair CLR 69.1 62.1 78% 30.06 1017.0
20 01:53 SE 7 10.00 Fair CLR 68 62.1 81% 30.05 1016.9
19 23:53 S 5 10.00 Fair CLR 69.1 62.1 78% 30.06 1017.2
19 22:53 SE 3 10.00 Fair CLR 73 62.1 69% 30.07 1017.5
19 21:53 Calm 10.00 Fair CLR 73.9 62.1 67% 30.06 1017.2
19 20:53 S 3 10.00 Fair CLR 75 63 66% 77 30.05 1016.9
19 19:53 SE 3 10.00 Fair CLR 81 62.1 53% 82 30.03 1016.2
19 18:53 W 5 10.00 Fair CLR 88 57.9 90 82.9 36% 87 30.03 1016.0
19 17:53 NW 6 10.00 Fair CLR 88 57 35% 87 30.02 1016.0
19 16:53 W 5 10.00 Fair CLR 90 57 33% 89 30.04 1016.5
19 15:53 Vrbl 5 10.00 Fair CLR 88 57 35% 87 30.05 1017.0
19 14:53 Vrbl 3 10.00 Partly Cloudy SCT060 86 59 40% 85 30.08 1017.9
19 13:53 N 9 10.00 A Few Clouds FEW055 88 59 38% 87 30.1 1018.7
19 12:53 Calm 10.00 Partly Cloudy SCT050 86 60.1 86 63 42% 86 30.12 1019.3
19 11:53 Vrbl 5 10.00 Partly Cloudy SCT044 84 61 46% 84 30.14 1019.8
19 10:53 Vrbl 3 10.00 Fair CLR 80.1 62.1 54% 81 30.14 1020.0
19 09:53 SE 7 10.00 Fair CLR 77 62.1 60% 79 30.16 1020.5
19 08:53 NE 3 10.00 Fair CLR 73 61 66% 30.16 1020.8
19 07:53 NE 6 10.00 Fair CLR 68 61 78% 30.16 1020.4
Date Time (cdt) Wind (mph) Vis. (mi.) Weather Sky Cond. Air Dwpt Max. Min. Relative Humidity Wind Chill (°F) Heat Index (°F) altimeter (in) sea level (mb) 1 hr 3 hr 6 hr
6 hour
Temperature (ºF) Pressure Precipitation (in)